Location: Zagreb
(45.8000°N, 16.0000°E)
Time: 20:05:21
(UTC+02:00)

ISS - Visible Passes

Search period start: 23 September 2017 00:00
Search period end: 03 October 2017 00:00
Orbit: 401 x 407 km, 51.6° (Epoch: 24 September)

Date Brightness Start Highest point End Pass type
(mag) Time Alt. Az. Time Alt. Az. Time Alt. Az.
24 Sep -1.3 20:35:47 10° SSW 20:36:12 13° SSW 20:36:12 13° SSW visible
25 Sep -2.0 19:44:27 10° S 19:46:28 15° SE 19:46:49 15° SE visible
25 Sep -0.8 21:19:16 10° WSW 21:19:31 12° WSW 21:19:31 12° WSW visible
26 Sep -3.6 20:27:01 10° SW 20:29:53 52° S 20:29:53 52° S visible
27 Sep -2.9 19:35:03 10° SSW 19:38:00 32° SE 19:40:03 16° E visible
27 Sep -1.5 21:11:11 10° W 21:12:44 24° W 21:12:44 24° W visible
28 Sep -3.7 20:18:42 10° WSW 20:21:58 74° NNW 20:22:45 48° NE visible
29 Sep -3.8 19:26:22 10° SW 19:29:37 68° SSE 19:32:37 12° ENE visible
29 Sep -1.7 21:03:14 10° W 21:05:17 27° NW 21:05:17 27° NW visible
30 Sep -2.9 20:10:36 10° W 20:13:46 44° NNW 20:15:03 28° NE visible
01 Oct -3.5 19:18:03 10° WSW 19:21:17 63° NNW 19:24:34 10° ENE visible
01 Oct -1.7 20:55:15 10° WNW 20:57:23 25° NNW 20:57:23 25° NNW visible
02 Oct -2.4 20:02:36 10° WNW 20:05:36 32° N 20:07:01 22° NE visible
02 Oct -0.1 21:39:38 10° NW 21:39:39 10° NW 21:39:39 10° NW visible
